Back to catalog

STARLINK-34476

AliveCommunicationsVLEO
NORAD 64364·PAYLOAD·🇺🇸 United States

Launched Jun 13, 2025 from Vandenberg Space Force Base

Loading…

Next Passes (next 24 hours)

TLE

FreshSource: CelesTrak SupGP

Epoch: Sep 14, 2026, 15:20 UTC

1 64364C 25126W   26257.63937500 -.00042146  00000+0 -14658-2 0  2575
2 64364  70.0002 276.3208 0003449 269.9956 243.7662 15.29606173    19

Track STARLINK-34476 in real time with AllMySat

Download on the App Store